• In Uzbekistan
  • List of Countries
  • For 7 days
  • Water Temperature
  • Satellite Maps
  • Weather Map
  • Weather Widgets
  • user-avatar
    Login

    Hourly Weather Malinovka

    Today, 23 October, Tuesday

    Time Temperature Precipitation Wind Pressure Humidity
    00:00 +1°C° 0.1 mm 6 mps 738 mmHg 80%
    01:00 +1°C° 0.1 mm 6 mps 738 mmHg 82%
    02:00 +1°C° 0.1 mm 5 mps 738 mmHg 83%
    03:00 +1°C° 0.1 mm 5 mps 738 mmHg 84%
    04:00 +1°C° 0.2 mm 5 mps 737 mmHg 85%
    05:00 +1°C° 0.2 mm 5 mps 737 mmHg 86%
    06:00 +1°C° 0.2 mm 5 mps 737 mmHg 87%
    07:00 +1°C° 0.1 mm 5 mps 737 mmHg 86%
    08:00 +1°C° 0.1 mm 5 mps 736 mmHg 85%
    09:00 +1°C° 0.1 mm 5 mps 736 mmHg 84%
    10:00 +1°C° 0 mm 5 mps 736 mmHg 82%
    11:00 +2°C° 0 mm 5 mps 735 mmHg 80%
    12:00 +2°C° 0 mm 5 mps 735 mmHg 78%
    13:00 +2°C° 0 mm 5 mps 735 mmHg 77%
    14:00 +4°C° 0 mm 4 mps 734 mmHg 77%
    15:00 +4°C° 0 mm 4 mps 734 mmHg 77%
    16:00 +4°C° 0 mm 3 mps 734 mmHg 79%
    17:00 +4°C° 0 mm 3 mps 733 mmHg 81%
    18:00 +4°C° 0 mm 3 mps 733 mmHg 83%
    19:00 +3°C° 0 mm 3 mps 733 mmHg 85%
    20:00 +3°C° 0 mm 3 mps 733 mmHg 86%
    21:00 +4°C° 0 mm 2 mps 733 mmHg 88%
    22:00 +4°C° 0.1 mm 2 mps 733 mmHg 90%
    23:00 +3°C° 0.1 mm 2 mps 733 mmHg 92%

    Tomorrow, 24 October, Wednesday

    Time Temperature Precipitation Wind Pressure Humidity
    00:00 +4°C° 0.1 mm 1 mps 733 mmHg 93%
    01:00 +4°C° 0.1 mm 1 mps 733 mmHg 94%
    02:00 +4°C° 0.1 mm 1 mps 733 mmHg 95%
    03:00 +4°C° 0.1 mm 1 mps 733 mmHg 96%
    04:00 +3°C° 0 mm 1 mps 732 mmHg 96%
    05:00 +3°C° 0 mm 1 mps 732 mmHg 96%
    06:00 +3°C° 0 mm 1 mps 732 mmHg 97%
    07:00 +4°C° 0 mm 1 mps 732 mmHg 95%
    08:00 +4°C° 0 mm 1 mps 732 mmHg 94%
    09:00 +5°C° 0 mm 1 mps 732 mmHg 92%
    10:00 +4°C° 0 mm 2 mps 732 mmHg 88%
    11:00 +5°C° 0 mm 2 mps 732 mmHg 84%
    12:00 +6°C° 0 mm 2 mps 732 mmHg 79%
    13:00 +6°C° 0 mm 2 mps 732 mmHg 80%
    14:00 +5°C° 0 mm 2 mps 732 mmHg 81%
    15:00 +5°C° 0 mm 2 mps 732 mmHg 82%
    16:00 +5°C° 0 mm 2 mps 732 mmHg 83%
    17:00 +5°C° 0 mm 2 mps 732 mmHg 85%
    18:00 +4°C° 0 mm 3 mps 732 mmHg 86%
    19:00 +4°C° 0 mm 3 mps 732 mmHg 87%
    20:00 +4°C° 0 mm 3 mps 732 mmHg 87%
    21:00 +4°C° 0 mm 3 mps 732 mmHg 87%
    22:00 +4°C° 0.1 mm 3 mps 732 mmHg 88%
    23:00 +4°C° 0.1 mm 3 mps 732 mmHg 89%

    Day after tomorrow, 25 October, Thursday

    Time Temperature Precipitation Wind Pressure Humidity
    00:00 +4°C° 0.1 mm 3 mps 732 mmHg 90%
    01:00 +4°C° 0.1 mm 3 mps 732 mmHg 91%
    02:00 +4°C° 0.1 mm 3 mps 732 mmHg 92%
    03:00 +4°C° 0.1 mm 3 mps 732 mmHg 92%
    04:00 +4°C° 0 mm 3 mps 732 mmHg 93%
    05:00 +4°C° 0 mm 3 mps 732 mmHg 93%
    06:00 +4°C° 0 mm 3 mps 732 mmHg 93%
    07:00 +4°C° 0.8 mm 3 mps 732 mmHg 93%
    08:00 +4°C° 0.8 mm 3 mps 732 mmHg 93%
    09:00 +4°C° 0.8 mm 3 mps 731 mmHg 93%
    10:00 +5°C° 0.1 mm 3 mps 731 mmHg 91%
    11:00 +5°C° 0.1 mm 3 mps 731 mmHg 90%
    12:00 +7°C° 0.1 mm 3 mps 731 mmHg 89%
    13:00 +7°C° 0.2 mm 3 mps 731 mmHg 90%
    14:00 +7°C° 0.2 mm 3 mps 730 mmHg 90%
    15:00 +6°C° 0.2 mm 4 mps 730 mmHg 91%
    16:00 +7°C° 0.3 mm 4 mps 729 mmHg 91%
    17:00 +7°C° 0.3 mm 4 mps 729 mmHg 91%
    18:00 +7°C° 0.3 mm 5 mps 728 mmHg 91%
    19:00 +7°C° 1 mm 5 mps 727 mmHg 89%
    20:00 +8°C° 1 mm 5 mps 727 mmHg 88%
    21:00 +8°C° 1 mm 6 mps 726 mmHg 86%
    22:00 +8°C° 0.5 mm 6 mps 725 mmHg 85%
    23:00 +9°C° 0.5 mm 5 mps 725 mmHg 85%

    26 October, Friday

    Time Temperature Precipitation Wind Pressure Humidity
    00:00 +9°C° 0.5 mm 5 mps 725 mmHg 84%
    01:00 +8°C° 0.5 mm 5 mps 725 mmHg 84%
    02:00 +8°C° 0.5 mm 5 mps 725 mmHg 83%
    03:00 +8°C° 0.5 mm 5 mps 724 mmHg 83%
    04:00 +7°C° 0 mm 5 mps 724 mmHg 81%
    05:00 +6°C° 0 mm 5 mps 725 mmHg 78%
    06:00 +6°C° 0 mm 5 mps 725 mmHg 76%
    07:00 +5°C° 0 mm 5 mps 725 mmHg 76%
    08:00 +4°C° 0 mm 6 mps 725 mmHg 76%
    09:00 +4°C° 0 mm 6 mps 725 mmHg 76%
    10:00 +4°C° 0 mm 6 mps 725 mmHg 75%
    11:00 +4°C° 0 mm 6 mps 725 mmHg 73%
    12:00 +4°C° 0 mm 6 mps 725 mmHg 72%
    13:00 +4°C° 0 mm 6 mps 725 mmHg 71%
    14:00 +3°C° 0 mm 6 mps 726 mmHg 71%
    15:00 +3°C° 0 mm 6 mps 726 mmHg 71%
    16:00 +3°C° 0 mm 6 mps 726 mmHg 73%
    17:00 +2°C° 0 mm 6 mps 726 mmHg 74%
    18:00 +2°C° 0 mm 6 mps 727 mmHg 75%
    19:00 +2°C° 0.1 mm 6 mps 727 mmHg 76%
    20:00 +2°C° 0.1 mm 6 mps 728 mmHg 77%
    21:00 +2°C° 0.1 mm 5 mps 728 mmHg 78%
    22:00 +2°C° 0.1 mm 5 mps 728 mmHg 79%
    23:00 +2°C° 0.1 mm 5 mps 729 mmHg 80%

    27 October, Saturday

    Time Temperature Precipitation Wind Pressure Humidity
    00:00 +1°C° 0.1 mm 4 mps 729 mmHg 81%
    01:00 +1°C° 0 mm 4 mps 730 mmHg 81%
    02:00 +1°C° 0 mm 4 mps 730 mmHg 82%
    03:00 +1°C° 0 mm 4 mps 731 mmHg 82%
    04:00 +1°C° 0.1 mm 4 mps 731 mmHg 82%
    05:00 0°C° 0.1 mm 4 mps 731 mmHg 83%
    06:00 0°C° 0.1 mm 4 mps 732 mmHg 83%
    07:00 0°C° 0.1 mm 4 mps 732 mmHg 82%
    08:00 0°C° 0.1 mm 4 mps 732 mmHg 80%
    09:00 0°C° 0.1 mm 4 mps 733 mmHg 79%
    10:00 0°C° 0.1 mm 5 mps 733 mmHg 77%
    11:00 0°C° 0.1 mm 5 mps 733 mmHg 74%
    12:00 0°C° 0.1 mm 5 mps 734 mmHg 71%
    13:00 0°C° 0 mm 5 mps 734 mmHg 72%
    14:00 0°C° 0 mm 4 mps 734 mmHg 72%
    15:00 -1°C° 0 mm 4 mps 735 mmHg 73%
    16:00 -1°C° 0 mm 4 mps 735 mmHg 74%
    17:00 -1°C° 0 mm 4 mps 736 mmHg 76%
    18:00 -1°C° 0 mm 4 mps 736 mmHg 77%
    19:00 -1°C° 0 mm 4 mps 737 mmHg 78%
    20:00 -1°C° 0 mm 4 mps 737 mmHg 80%
    21:00 -1°C° 0 mm 4 mps 737 mmHg 81%
    22:00 -1°C° 0 mm 4 mps 738 mmHg 82%
    23:00 -2°C° 0 mm 4 mps 738 mmHg 82%

    28 October, Sunday

    Time Temperature Precipitation Wind Pressure Humidity
    00:00 -2°C° 0 mm 4 mps 739 mmHg 83%
    01:00 -2°C° 0 mm 4 mps 739 mmHg 83%
    02:00 -2°C° 0 mm 4 mps 739 mmHg 83%
    03:00 -2°C° 0 mm 4 mps 740 mmHg 83%
    04:00 -2°C° 0 mm 4 mps 740 mmHg 84%
    05:00 -2°C° 0 mm 4 mps 740 mmHg 84%
    06:00 -3°C° 0 mm 4 mps 740 mmHg 85%
    07:00 -1°C° 0 mm 3 mps 740 mmHg 84%
    08:00 -1°C° 0 mm 3 mps 740 mmHg 83%
    09:00 -1°C° 0 mm 3 mps 740 mmHg 82%
    10:00 0°C° 0.2 mm 3 mps 740 mmHg 83%
    11:00 0°C° 0.2 mm 3 mps 739 mmHg 84%
    12:00 0°C° 0.2 mm 3 mps 739 mmHg 84%
    13:00 0°C° 0.3 mm 3 mps 739 mmHg 86%
    14:00 +2°C° 0.3 mm 2 mps 739 mmHg 87%
    15:00 +2°C° 0.3 mm 2 mps 738 mmHg 89%
    16:00 +2°C° 0.1 mm 2 mps 739 mmHg 91%
    17:00 +2°C° 0.1 mm 2 mps 739 mmHg 93%
    18:00 +2°C° 0.1 mm 2 mps 739 mmHg 95%
    19:00 +2°C° 0 mm 2 mps 739 mmHg 95%
    20:00 +2°C° 0 mm 2 mps 740 mmHg 96%
    21:00 +2°C° 0 mm 2 mps 740 mmHg 96%
    22:00 +3°C° 0 mm 1 mps 740 mmHg 97%
    23:00 +3°C° 0 mm 1 mps 741 mmHg 97%

    29 October, Monday

    Time Temperature Precipitation Wind Pressure Humidity
    00:00 +3°C° 0 mm 1 mps 741 mmHg 97%
    01:00 +3°C° 0 mm 1 mps 741 mmHg 97%
    02:00 +3°C° 0 mm 1 mps 741 mmHg 97%
    03:00 +3°C° 0 mm 1 mps 741 mmHg 97%
    04:00 +3°C° 0.2 mm 1 mps 741 mmHg 97%
    05:00 +3°C° 0.2 mm 1 mps 740 mmHg 97%
    06:00 +2°C° 0.2 mm 2 mps 740 mmHg 97%
    07:00 +2°C° 0.2 mm 2 mps 740 mmHg 96%
    08:00 +2°C° 0.2 mm 2 mps 739 mmHg 95%
    09:00 +2°C° 0.2 mm 3 mps 739 mmHg 94%
    10:00 +2°C° 0.3 mm 3 mps 738 mmHg 94%
    11:00 +2°C° 0.3 mm 3 mps 737 mmHg 94%
    12:00 +3°C° 0.3 mm 3 mps 737 mmHg 95%
    13:00 +4°C° 0.9 mm 4 mps 736 mmHg 94%
    14:00 +6°C° 0.9 mm 4 mps 735 mmHg 93%
    15:00 +7°C° 0.9 mm 5 mps 734 mmHg 93%
    16:00 +7°C° 0.4 mm 5 mps 734 mmHg 88%
    17:00 +5°C° 0.4 mm 6 mps 734 mmHg 83%
    18:00 +4°C° 0.4 mm 6 mps 734 mmHg 78%
    19:00 +4°C° 0.2 mm 6 mps 735 mmHg 79%
    20:00 +3°C° 0.2 mm 6 mps 737 mmHg 80%
    21:00 +3°C° 0.2 mm 6 mps 738 mmHg 81%
    22:00 +1°C° 0.1 mm 6 mps 740 mmHg 81%
    23:00 -1°C° 0.1 mm 6 mps 742 mmHg 81%
    Show more